Time,TemperatureF,DewpointF,PressureIn,WindDirection,WindDirectionDegrees,WindSpeedMPH,WindSpeedGustMPH,Humidity,HourlyPrecipIn,Conditions,Clouds,dailyrainin,SoftwareType,DateUTC
2014-01-27 00:04:00,2.2,-5.1,29.95,WNW,292,15.0,20.0,71,0.00,,,0.00,Wunderground v.1.15,2014-01-27 06:04:00,
2014-01-27 00:10:00,2.1,-5.4,29.95,WNW,294,16.0,22.0,70,0.00,,,0.00,Wunderground v.1.15,2014-01-27 06:10:00,
2014-01-27 00:16:00,2.0,-5.5,29.96,WNW,289,17.0,22.0,70,0.00,,,0.00,Wunderground v.1.15,2014-01-27 06:16:00,
2014-01-27 00:22:00,2.0,-5.8,29.96,WNW,293,18.0,18.0,69,0.00,,,0.00,Wunderground v.1.15,2014-01-27 06:22:00,
2014-01-27 00:28:00,1.9,-5.9,29.97,WNW,298,19.0,21.0,69,0.00,,,0.00,Wunderground v.1.15,2014-01-27 06:28:00,
2014-01-27 00:34:00,1.8,-6.3,29.97,WNW,294,17.0,18.0,68,0.00,,,0.00,Wunderground v.1.15,2014-01-27 06:34:00,
2014-01-27 00:40:00,1.6,-6.5,29.98,West,273,16.0,16.0,68,0.00,,,0.00,Wunderground v.1.15,2014-01-27 06:40:00,
2014-01-27 00:46:00,1.5,-6.6,29.98,WNW,286,16.0,17.0,68,0.00,,,0.00,Wunderground v.1.15,2014-01-27 06:46:00,
2014-01-27 00:52:00,1.4,-6.7,29.99,WNW,293,16.0,23.0,68,0.00,,,0.00,Wunderground v.1.15,2014-01-27 06:52:00,
2014-01-27 00:58:00,1.4,-6.7,29.99,WNW,294,16.0,23.0,68,0.00,,,0.00,Wunderground v.1.15,2014-01-27 06:58:00,
2014-01-27 01:04:00,1.2,-6.9,29.99,WNW,300,16.0,16.0,68,0.00,,,0.00,Wunderground v.1.15,2014-01-27 07:04:00,
2014-01-27 01:10:00,1.0,-7.1,30.00,WNW,287,15.0,15.0,68,0.00,,,0.00,Wunderground v.1.15,2014-01-27 07:10:00,
2014-01-27 01:16:00,1.0,-7.1,30.00,WNW,302,15.0,22.0,68,0.00,,,0.00,Wunderground v.1.15,2014-01-27 07:16:00,
2014-01-27 01:22:00,0.9,-7.2,30.01,WNW,283,15.0,18.0,68,0.00,,,0.00,Wunderground v.1.15,2014-01-27 07:22:00,
2014-01-27 01:28:00,0.8,-7.3,30.02,WNW,298,14.0,18.0,68,0.00,,,0.00,Wunderground v.1.15,2014-01-27 07:28:00,
2014-01-27 01:34:00,0.7,-7.4,30.02,West,279,13.0,14.0,68,0.00,,,0.00,Wunderground v.1.15,2014-01-27 07:34:00,
2014-01-27 01:40:00,0.6,-7.5,30.03,West,277,13.0,13.0,68,0.00,,,0.00,Wunderground v.1.15,2014-01-27 07:40:00,
2014-01-27 01:46:00,0.5,-7.6,30.04,West,280,13.0,14.0,68,0.00,,,0.00,Wunderground v.1.15,2014-01-27 07:46:00,
2014-01-27 01:52:00,0.5,-7.6,30.04,WNW,288,13.0,16.0,68,0.00,,,0.00,Wunderground v.1.15,2014-01-27 07:52:00,
2014-01-27 01:58:00,0.4,-8.0,30.05,WNW,288,13.0,20.0,67,0.00,,,0.00,Wunderground v.1.15,2014-01-27 07:58:00,
2014-01-27 02:04:00,0.5,-7.6,30.05,WNW,289,14.0,16.0,68,0.00,,,0.00,Wunderground v.1.15,2014-01-27 08:04:00,
2014-01-27 02:10:00,0.1,-8.0,30.06,WNW,284,13.0,13.0,68,0.00,,,0.00,Wunderground v.1.15,2014-01-27 08:10:00,
2014-01-27 02:16:00,-0.3,-8.4,30.06,West,274,11.0,14.0,68,0.00,,,0.00,Wunderground v.1.15,2014-01-27 08:16:00,
2014-01-27 02:22:00,-0.3,-8.4,30.07,West,277,10.0,12.0,68,0.00,,,0.00,Wunderground v.1.15,2014-01-27 08:22:00,
2014-01-27 02:28:00,-0.5,-8.5,30.07,WNW,289,10.0,14.0,68,0.00,,,0.00,Wunderground v.1.15,2014-01-27 08:28:00,
2014-01-27 02:34:00,-0.8,-8.8,30.08,West,265,9.0,12.0,68,0.00,,,0.00,Wunderground v.1.15,2014-01-27 08:34:00,
2014-01-27 02:40:00,-0.8,-8.8,30.08,WNW,288,10.0,10.0,68,0.00,,,0.00,Wunderground v.1.15,2014-01-27 08:40:00,
2014-01-27 02:46:00,-0.8,-8.8,30.08,West,279,11.0,11.0,68,0.00,,,0.00,Wunderground v.1.15,2014-01-27 08:46:00,
2014-01-27 02:52:00,-1.1,-9.1,30.09,WNW,287,10.0,10.0,68,0.00,,,0.00,Wunderground v.1.15,2014-01-27 08:52:00,
2014-01-27 02:58:00,-1.0,-8.7,30.09,WNW,292,11.0,12.0,69,0.00,,,0.00,Wunderground v.1.15,2014-01-27 08:58:00,
2014-01-27 03:04:00,-0.8,-8.8,30.09,WNW,292,13.0,15.0,68,0.00,,,0.00,Wunderground v.1.15,2014-01-27 09:04:00,
2014-01-27 03:10:00,-0.9,-8.9,30.10,West,281,14.0,14.0,68,0.00,,,0.00,Wunderground v.1.15,2014-01-27 09:10:00,
2014-01-27 03:16:00,-1.2,-9.2,30.11,WNW,290,12.0,20.0,68,0.00,,,0.00,Wunderground v.1.15,2014-01-27 09:16:00,
2014-01-27 03:22:00,-1.2,-9.2,30.11,WNW,288,11.0,13.0,68,0.00,,,0.00,Wunderground v.1.15,2014-01-27 09:22:00,
2014-01-27 03:28:00,-1.4,-9.4,30.12,West,281,11.0,14.0,68,0.00,,,0.00,Wunderground v.1.15,2014-01-27 09:28:00,
2014-01-27 03:34:00,-1.4,-9.1,30.12,WNW,290,12.0,15.0,69,0.00,,,0.00,Wunderground v.1.15,2014-01-27 09:34:00,
2014-01-27 03:40:00,-1.6,-9.6,30.12,WNW,288,13.0,14.0,68,0.00,,,0.00,Wunderground v.1.15,2014-01-27 09:40:00,
2014-01-27 03:46:00,-1.6,-9.6,30.13,WNW,288,12.0,14.0,68,0.00,,,0.00,Wunderground v.1.15,2014-01-27 09:46:00,
2014-01-27 03:52:00,-1.8,-9.8,30.13,WNW,286,12.0,13.0,68,0.00,,,0.00,Wunderground v.1.15,2014-01-27 09:52:00,
2014-01-27 03:58:00,-1.8,-9.5,30.13,WNW,292,13.0,13.0,69,0.00,,,0.00,Wunderground v.1.15,2014-01-27 09:58:00,
2014-01-27 04:04:00,-1.8,-9.5,30.13,WNW,300,15.0,17.0,69,0.00,,,0.00,Wunderground v.1.15,2014-01-27 10:04:00,
2014-01-27 04:10:00,-2.1,-9.8,30.13,WNW,290,17.0,18.0,69,0.00,,,0.00,Wunderground v.1.15,2014-01-27 10:10:00,
2014-01-27 04:16:00,-2.2,-9.6,30.14,WNW,287,16.0,20.0,70,0.00,,,0.00,Wunderground v.1.15,2014-01-27 10:16:00,
2014-01-27 04:22:00,-2.4,-9.8,30.14,WNW,290,15.0,17.0,70,0.00,,,0.00,Wunderground v.1.15,2014-01-27 10:22:00,
2014-01-27 04:28:00,-2.5,-9.9,30.15,WNW,288,13.0,17.0,70,0.00,,,0.00,Wunderground v.1.15,2014-01-27 10:28:00,
2014-01-27 04:34:00,-2.6,-10.0,30.15,WNW,300,14.0,18.0,70,0.00,,,0.00,Wunderground v.1.15,2014-01-27 10:34:00,
2014-01-27 04:40:00,-2.8,-10.2,30.15,WNW,300,15.0,15.0,70,0.00,,,0.00,Wunderground v.1.15,2014-01-27 10:40:00,
2014-01-27 04:46:00,-2.9,-10.3,30.15,WNW,299,16.0,20.0,70,0.00,,,0.00,Wunderground v.1.15,2014-01-27 10:46:00,
2014-01-27 04:52:00,-3.0,-10.4,30.16,NW,311,15.0,16.0,70,0.00,,,0.00,Wunderground v.1.15,2014-01-27 10:52:00,
2014-01-27 04:58:00,-3.2,-10.6,30.16,West,279,13.0,16.0,70,0.00,,,0.00,Wunderground v.1.15,2014-01-27 10:58:00,
2014-01-27 05:04:00,-3.3,-10.9,30.17,WNW,284,10.0,12.0,69,0.00,,,0.00,Wunderground v.1.15,2014-01-27 11:04:00,
2014-01-27 05:10:00,-3.4,-11.0,30.17,WNW,298,12.0,13.0,69,0.00,,,0.00,Wunderground v.1.15,2014-01-27 11:10:00,
2014-01-27 05:16:00,-3.5,-11.1,30.17,WNW,290,12.0,14.0,69,0.00,,,0.00,Wunderground v.1.15,2014-01-27 11:16:00,
2014-01-27 05:22:00,-3.7,-11.3,30.17,WNW,290,12.0,14.0,69,0.00,,,0.00,Wunderground v.1.15,2014-01-27 11:22:00,
2014-01-27 05:28:00,-3.8,-11.4,30.17,WNW,292,13.0,14.0,69,0.00,,,0.00,Wunderground v.1.15,2014-01-27 11:28:00,
2014-01-27 05:34:00,-3.9,-11.5,30.17,West,281,14.0,15.0,69,0.00,,,0.00,Wunderground v.1.15,2014-01-27 11:34:00,
2014-01-27 05:40:00,-4.3,-11.6,30.18,WNW,290,13.0,13.0,70,0.00,,,0.00,Wunderground v.1.15,2014-01-27 11:40:00,
2014-01-27 05:46:00,-4.5,-11.8,30.18,West,280,12.0,13.0,70,0.00,,,0.00,Wunderground v.1.15,2014-01-27 11:46:00,
2014-01-27 05:52:00,-4.5,-11.5,30.18,WNW,284,12.0,13.0,71,0.00,,,0.00,Wunderground v.1.15,2014-01-27 11:52:00,
2014-01-27 05:58:00,-4.6,-11.6,30.19,WNW,284,12.0,13.0,71,0.00,,,0.00,Wunderground v.1.15,2014-01-27 11:58:00,
2014-01-27 06:04:00,-4.8,-12.1,30.19,WNW,297,12.0,20.0,70,0.00,,,0.00,Wunderground v.1.15,2014-01-27 12:04:00,
2014-01-27 06:10:00,-4.8,-12.1,30.19,WNW,287,13.0,16.0,70,0.00,,,0.00,Wunderground v.1.15,2014-01-27 12:10:00,
2014-01-27 06:16:00,-4.9,-12.2,30.19,NW,304,13.0,18.0,70,0.00,,,0.00,Wunderground v.1.15,2014-01-27 12:16:00,
2014-01-27 06:22:00,-5.2,-12.5,30.19,WNW,284,13.0,17.0,70,0.00,,,0.00,Wunderground v.1.15,2014-01-27 12:22:00,
2014-01-27 06:28:00,-5.2,-12.5,30.19,West,275,14.0,17.0,70,0.00,,,0.00,Wunderground v.1.15,2014-01-27 12:28:00,
2014-01-27 06:34:00,-5.5,-12.5,30.20,WNW,283,12.0,13.0,71,0.00,,,0.00,Wunderground v.1.15,2014-01-27 12:34:00,
2014-01-27 06:40:00,-5.6,-12.9,30.21,WNW,292,11.0,11.0,70,0.00,,,0.00,Wunderground v.1.15,2014-01-27 12:40:00,
2014-01-27 06:46:00,-5.7,-13.0,30.22,West,281,11.0,14.0,70,0.00,,,0.00,Wunderground v.1.15,2014-01-27 12:46:00,
2014-01-27 06:52:00,-5.9,-13.2,30.22,WNW,285,11.0,13.0,70,0.00,,,0.00,Wunderground v.1.15,2014-01-27 12:52:00,
2014-01-27 06:58:00,-5.9,-13.2,30.22,WNW,291,10.0,13.0,70,0.00,,,0.00,Wunderground v.1.15,2014-01-27 12:58:00,
2014-01-27 07:04:00,-6.1,-13.3,30.22,WNW,292,10.0,12.0,70,0.00,,,0.00,Wunderground v.1.15,2014-01-27 13:04:00,
2014-01-27 07:10:00,-6.1,-13.6,30.22,NW,317,11.0,16.0,69,0.00,,,0.00,Wunderground v.1.15,2014-01-27 13:10:00,
2014-01-27 07:16:00,-6.1,-13.9,30.22,WNW,295,13.0,16.0,68,0.00,,,0.00,Wunderground v.1.15,2014-01-27 13:16:00,
2014-01-27 07:22:00,-6.2,-14.3,30.23,WNW,282,13.0,15.0,67,0.00,,,0.00,Wunderground v.1.15,2014-01-27 13:22:00,
2014-01-27 07:28:00,-6.3,-14.4,30.24,West,268,12.0,15.0,67,0.00,,,0.00,Wunderground v.1.15,2014-01-27 13:28:00,
2014-01-27 07:34:00,-6.5,-14.9,30.24,West,279,12.0,13.0,66,0.00,,,0.00,Wunderground v.1.15,2014-01-27 13:34:00,
2014-01-27 07:40:00,-6.4,-14.8,30.25,West,277,13.0,13.0,66,0.00,,,0.00,Wunderground v.1.15,2014-01-27 13:40:00,
2014-01-27 07:46:00,-6.5,-14.9,30.25,WNW,297,13.0,15.0,66,0.00,,,0.00,Wunderground v.1.15,2014-01-27 13:46:00,
2014-01-27 07:52:00,-6.5,-14.9,30.26,WNW,290,12.0,16.0,66,0.00,,,0.00,Wunderground v.1.15,2014-01-27 13:52:00,
2014-01-27 07:58:00,-6.5,-14.9,30.26,WNW,282,12.0,18.0,66,0.00,,,0.00,Wunderground v.1.15,2014-01-27 13:58:00,
2014-01-27 08:04:00,-6.5,-15.2,30.27,WNW,283,11.0,13.0,65,0.00,,,0.00,Wunderground v.1.15,2014-01-27 14:04:00,
2014-01-27 08:10:00,-6.7,-15.4,30.27,WNW,293,12.0,12.0,65,0.00,,,0.00,Wunderground v.1.15,2014-01-27 14:10:00,
2014-01-27 08:16:00,-6.6,-15.3,30.27,WNW,293,13.0,13.0,65,0.00,,,0.00,Wunderground v.1.15,2014-01-27 14:16:00,
2014-01-27 08:22:00,-6.6,-15.3,30.28,WNW,286,13.0,13.0,65,0.00,,,0.00,Wunderground v.1.15,2014-01-27 14:22:00,
2014-01-27 08:28:00,-6.6,-15.3,30.28,WNW,291,13.0,16.0,65,0.00,,,0.00,Wunderground v.1.15,2014-01-27 14:28:00,
2014-01-27 08:34:00,-6.6,-15.3,30.28,WNW,290,14.0,14.0,65,0.00,,,0.00,Wunderground v.1.15,2014-01-27 14:34:00,
2014-01-27 08:40:00,-6.6,-15.3,30.29,WNW,299,13.0,13.0,65,0.00,,,0.00,Wunderground v.1.15,2014-01-27 14:40:00,
2014-01-27 08:46:00,-6.6,-15.3,30.29,WNW,301,13.0,17.0,65,0.00,,,0.00,Wunderground v.1.15,2014-01-27 14:46:00,
2014-01-27 08:52:00,-6.8,-15.5,30.29,WNW,284,17.0,24.0,65,0.00,,,0.00,Wunderground v.1.15,2014-01-27 14:52:00,
2014-01-27 08:58:00,-6.8,-15.8,30.29,WNW,288,17.0,24.0,64,0.00,,,0.00,Wunderground v.1.15,2014-01-27 14:58:00,
2014-01-27 09:04:00,-6.7,-15.7,30.30,WNW,301,14.0,16.0,64,0.00,,,0.00,Wunderground v.1.15,2014-01-27 15:04:00,
2014-01-27 09:10:00,-6.5,-15.5,30.30,WNW,294,12.0,12.0,64,0.00,,,0.00,Wunderground v.1.15,2014-01-27 15:10:00,
2014-01-27 09:16:00,-6.6,-15.9,30.31,WNW,296,13.0,19.0,63,0.00,,,0.00,Wunderground v.1.15,2014-01-27 15:16:00,
2014-01-27 09:22:00,-6.9,-15.9,30.31,WNW,303,18.0,19.0,64,0.00,,,0.00,Wunderground v.1.15,2014-01-27 15:22:00,
2014-01-27 09:28:00,-6.8,-15.5,30.31,WNW,296,17.0,21.0,65,0.00,,,0.00,Wunderground v.1.15,2014-01-27 15:28:00,
2014-01-27 09:34:00,-6.7,-15.7,30.32,WNW,302,15.0,21.0,64,0.00,,,0.00,Wunderground v.1.15,2014-01-27 15:34:00,
2014-01-27 09:40:00,-6.8,-15.8,30.32,WNW,303,16.0,16.0,64,0.00,,,0.00,Wunderground v.1.15,2014-01-27 15:40:00,
2014-01-27 09:46:00,-6.7,-15.4,30.32,WNW,298,16.0,17.0,65,0.00,,,0.00,Wunderground v.1.15,2014-01-27 15:46:00,
2014-01-27 09:52:00,-6.9,-15.9,30.33,WNW,298,15.0,16.0,64,0.00,,,0.00,Wunderground v.1.15,2014-01-27 15:52:00,
2014-01-27 09:58:00,-6.9,-15.9,30.33,NW,304,16.0,17.0,64,0.00,,,0.00,Wunderground v.1.15,2014-01-27 15:58:00,
2014-01-27 10:04:00,-7.0,-16.0,30.34,WNW,294,16.0,19.0,64,0.00,,,0.00,Wunderground v.1.15,2014-01-27 16:04:00,
2014-01-27 10:10:00,-6.8,-15.8,30.35,WNW,292,15.0,21.0,64,0.00,,,0.00,Wunderground v.1.15,2014-01-27 16:10:00,
2014-01-27 10:16:00,-7.0,-16.0,30.35,WNW,298,15.0,21.0,64,0.00,,,0.00,Wunderground v.1.15,2014-01-27 16:16:00,
2014-01-27 10:22:00,-7.0,-16.3,30.35,WNW,292,17.0,17.0,63,0.00,,,0.00,Wunderground v.1.15,2014-01-27 16:22:00,
2014-01-27 10:28:00,-6.9,-16.2,30.35,NW,311,17.0,18.0,63,0.00,,,0.00,Wunderground v.1.15,2014-01-27 16:28:00,
2014-01-27 10:34:00,-6.8,-15.8,30.36,West,281,15.0,17.0,64,0.00,,,0.00,Wunderground v.1.15,2014-01-27 16:34:00,
2014-01-27 10:40:00,-6.9,-16.2,30.36,West,275,15.0,15.0,63,0.00,,,0.00,Wunderground v.1.15,2014-01-27 16:40:00,
2014-01-27 10:46:00,-6.9,-16.2,30.36,NW,306,16.0,17.0,63,0.00,,,0.00,Wunderground v.1.15,2014-01-27 16:46:00,
2014-01-27 10:52:00,-6.7,-15.7,30.36,WNW,292,16.0,16.0,64,0.00,,,0.00,Wunderground v.1.15,2014-01-27 16:52:00,
2014-01-27 10:58:00,-6.6,-15.9,30.36,WNW,284,14.0,16.0,63,0.00,,,0.00,Wunderground v.1.15,2014-01-27 16:58:00,
2014-01-27 11:04:00,-6.6,-15.9,30.36,NW,312,15.0,19.0,63,0.00,,,0.00,Wunderground v.1.15,2014-01-27 17:04:00,
2014-01-27 11:10:00,-6.7,-16.0,30.36,WNW,288,14.0,19.0,63,0.00,,,0.00,Wunderground v.1.15,2014-01-27 17:10:00,
2014-01-27 11:16:00,-6.7,-16.0,30.36,NW,305,13.0,19.0,63,0.00,,,0.00,Wunderground v.1.15,2014-01-27 17:16:00,
2014-01-27 11:22:00,-6.7,-16.3,30.36,WNW,303,16.0,19.0,62,0.00,,,0.00,Wunderground v.1.15,2014-01-27 17:22:00,
2014-01-27 11:28:00,-6.7,-13.6,30.36,West,281,17.0,19.0,71,0.00,,,0.00,Wunderground v.1.15,2014-01-27 17:28:00,
2014-01-27 11:34:00,-6.3,-15.6,30.37,WNW,290,15.0,16.0,63,0.00,,,0.00,Wunderground v.1.15,2014-01-27 17:34:00,
2014-01-27 11:40:00,-6.5,-16.1,30.37,NW,311,15.0,19.0,62,0.00,,,0.00,Wunderground v.1.15,2014-01-27 17:40:00,
2014-01-27 11:46:00,-6.2,-15.5,30.37,WNW,292,14.0,19.0,63,0.00,,,0.00,Wunderground v.1.15,2014-01-27 17:46:00,
2014-01-27 11:52:00,-6.1,-14.8,30.37,WNW,290,12.0,13.0,65,0.00,,,0.00,Wunderground v.1.15,2014-01-27 17:52:00,
2014-01-27 11:58:00,-6.2,-15.2,30.37,WNW,294,11.0,15.0,64,0.00,,,0.00,Wunderground v.1.15,2014-01-27 17:58:00,
2014-01-27 12:04:00,-6.2,-15.2,30.37,WNW,286,13.0,15.0,64,0.00,,,0.00,Wunderground v.1.15,2014-01-27 18:04:00,
2014-01-27 12:10:00,-5.8,-14.8,30.37,WNW,291,11.0,17.0,64,0.00,,,0.00,Wunderground v.1.15,2014-01-27 18:10:00,
2014-01-27 12:16:00,-6.2,-15.9,30.37,WNW,291,13.0,17.0,62,0.00,,,0.00,Wunderground v.1.15,2014-01-27 18:16:00,
2014-01-27 12:22:00,-6.1,-15.8,30.36,WNW,285,14.0,15.0,62,0.00,,,0.00,Wunderground v.1.15,2014-01-27 18:22:00,
2014-01-27 12:28:00,-6.0,-15.7,30.36,West,273,13.0,17.0,62,0.00,,,0.00,Wunderground v.1.15,2014-01-27 18:28:00,
2014-01-27 12:34:00,-6.1,-16.1,30.36,WNW,286,14.0,17.0,61,0.00,,,0.00,Wunderground v.1.15,2014-01-27 18:34:00,
2014-01-27 12:40:00,-5.8,-15.5,30.36,WNW,300,14.0,14.0,62,0.00,,,0.00,Wunderground v.1.15,2014-01-27 18:40:00,
2014-01-27 12:46:00,-5.8,-15.5,30.36,WNW,287,13.0,21.0,62,0.00,,,0.00,Wunderground v.1.15,2014-01-27 18:46:00,
2014-01-27 12:52:00,-5.6,-15.3,30.37,WNW,296,15.0,17.0,62,0.00,,,0.00,Wunderground v.1.15,2014-01-27 18:52:00,
2014-01-27 12:58:00,-5.4,-14.8,30.37,WNW,283,13.0,17.0,63,0.00,,,0.00,Wunderground v.1.15,2014-01-27 18:58:00,
2014-01-27 13:04:00,-5.3,-15.0,30.37,WNW,283,12.0,13.0,62,0.00,,,0.00,Wunderground v.1.15,2014-01-27 19:04:00,
2014-01-27 13:10:00,-5.4,-14.8,30.37,WNW,284,13.0,13.0,63,0.00,,,0.00,Wunderground v.1.15,2014-01-27 19:10:00,
2014-01-27 13:16:00,-5.5,-14.9,30.37,West,270,15.0,16.0,63,0.00,,,0.00,Wunderground v.1.15,2014-01-27 19:16:00,
2014-01-27 13:22:00,-5.7,-15.7,30.37,WNW,284,15.0,19.0,61,0.00,,,0.00,Wunderground v.1.15,2014-01-27 19:22:00,
2014-01-27 13:28:00,-5.3,-15.3,30.38,NW,314,15.0,19.0,61,0.00,,,0.00,Wunderground v.1.15,2014-01-27 19:28:00,
2014-01-27 13:34:00,-5.0,-15.0,30.38,WNW,297,13.0,14.0,61,0.00,,,0.00,Wunderground v.1.15,2014-01-27 19:34:00,
2014-01-27 13:40:00,-5.0,-15.0,30.38,West,277,12.0,16.0,61,0.00,,,0.00,Wunderground v.1.15,2014-01-27 19:40:00,
2014-01-27 13:46:00,-5.1,-14.8,30.38,WNW,293,12.0,16.0,62,0.00,,,0.00,Wunderground v.1.15,2014-01-27 19:46:00,
2014-01-27 13:52:00,-5.1,-14.8,30.38,West,277,12.0,13.0,62,0.00,,,0.00,Wunderground v.1.15,2014-01-27 19:52:00,
2014-01-27 13:58:00,-5.2,-14.9,30.38,WNW,283,14.0,18.0,62,0.00,,,0.00,Wunderground v.1.15,2014-01-27 19:58:00,
2014-01-27 14:04:00,-5.2,-14.9,30.38,West,275,13.0,14.0,62,0.00,,,0.00,Wunderground v.1.15,2014-01-27 20:04:00,
2014-01-27 14:10:00,-4.9,-14.6,30.38,WNW,286,13.0,13.0,62,0.00,,,0.00,Wunderground v.1.15,2014-01-27 20:10:00,
2014-01-27 14:12:00,-5.0,-15.0,30.39,WNW,283,13.0,13.0,61,0.00,,,0.00,Wunderground v.1.15,2014-01-27 20:12:00,
2014-01-27 14:18:00,-4.8,-14.8,30.39,West,261,13.0,17.0,61,0.00,,,0.00,Wunderground v.1.15,2014-01-27 20:18:00,
2014-01-27 14:24:00,-4.9,-14.6,30.39,West,273,14.0,14.0,62,0.00,,,0.00,Wunderground v.1.15,2014-01-27 20:24:00,
2014-01-27 14:30:00,-4.8,-14.5,30.39,West,275,13.0,13.0,62,0.00,,,0.00,Wunderground v.1.15,2014-01-27 20:30:00,
2014-01-27 14:36:00,-4.6,-14.7,30.39,WNW,293,12.0,13.0,61,0.00,,,0.00,Wunderground v.1.15,2014-01-27 20:36:00,
2014-01-27 14:42:00,-4.6,-14.7,30.40,West,279,11.0,11.0,61,0.00,,,0.00,Wunderground v.1.15,2014-01-27 20:42:00,
2014-01-27 14:48:00,-4.7,-14.7,30.40,West,281,11.0,11.0,61,0.00,,,0.00,Wunderground v.1.15,2014-01-27 20:48:00,
2014-01-27 14:54:00,-4.8,-14.8,30.41,WNW,282,11.0,17.0,61,0.00,,,0.00,Wunderground v.1.15,2014-01-27 20:54:00,
2014-01-27 15:00:00,-4.9,-14.9,30.41,WNW,284,13.0,13.0,61,0.00,,,0.00,Wunderground v.1.15,2014-01-27 21:00:00,
2014-01-27 15:06:00,-4.9,-14.6,30.41,West,281,13.0,14.0,62,0.00,,,0.00,Wunderground v.1.15,2014-01-27 21:06:00,
2014-01-27 15:12:00,-4.9,-14.6,30.41,WNW,297,12.0,14.0,62,0.00,,,0.00,Wunderground v.1.15,2014-01-27 21:12:00,
2014-01-27 15:18:00,-4.9,-14.9,30.41,WNW,286,12.0,14.0,61,0.00,,,0.00,Wunderground v.1.15,2014-01-27 21:18:00,
2014-01-27 15:24:00,-5.0,-15.0,30.41,West,281,13.0,17.0,61,0.00,,,0.00,Wunderground v.1.15,2014-01-27 21:24:00,
2014-01-27 15:30:00,-5.0,-14.7,30.41,West,276,13.0,13.0,62,0.00,,,0.00,Wunderground v.1.15,2014-01-27 21:30:00,
2014-01-27 15:36:00,-4.9,-14.9,30.42,WNW,283,13.0,15.0,61,0.00,,,0.00,Wunderground v.1.15,2014-01-27 21:36:00,
2014-01-27 15:42:00,-4.9,-14.9,30.42,West,261,12.0,13.0,61,0.00,,,0.00,Wunderground v.1.15,2014-01-27 21:42:00,
2014-01-27 15:48:00,-5.0,-14.7,30.42,West,264,11.0,14.0,62,0.00,,,0.00,Wunderground v.1.15,2014-01-27 21:48:00,
2014-01-27 15:54:00,-5.1,-14.8,30.42,West,281,12.0,12.0,62,0.00,,,0.00,Wunderground v.1.15,2014-01-27 21:54:00,
2014-01-27 16:00:00,-5.0,-14.7,30.42,West,277,12.0,12.0,62,0.00,,,0.00,Wunderground v.1.15,2014-01-27 22:00:00,
2014-01-27 16:06:00,-5.1,-15.1,30.43,West,268,12.0,13.0,61,0.00,,,0.00,Wunderground v.1.15,2014-01-27 22:06:00,
2014-01-27 16:12:00,-5.1,-15.1,30.43,West,278,12.0,13.0,61,0.00,,,0.00,Wunderground v.1.15,2014-01-27 22:12:00,
2014-01-27 16:18:00,-5.2,-15.2,30.43,WNW,283,12.0,13.0,61,0.00,,,0.00,Wunderground v.1.15,2014-01-27 22:18:00,
2014-01-27 16:24:00,-5.2,-15.2,30.43,West,278,11.0,12.0,61,0.00,,,0.00,Wunderground v.1.15,2014-01-27 22:24:00,
2014-01-27 16:30:00,-5.2,-15.2,30.43,West,268,11.0,12.0,61,0.00,,,0.00,Wunderground v.1.15,2014-01-27 22:30:00,
2014-01-27 16:36:00,-5.5,-15.5,30.43,West,269,10.0,12.0,61,0.00,,,0.00,Wunderground v.1.15,2014-01-27 22:36:00,
2014-01-27 16:42:00,-5.7,-15.7,30.43,West,261,11.0,16.0,61,0.00,,,0.00,Wunderground v.1.15,2014-01-27 22:42:00,
2014-01-27 16:48:00,-5.8,-16.1,30.43,West,277,12.0,16.0,60,0.00,,,0.00,Wunderground v.1.15,2014-01-27 22:48:00,
2014-01-27 16:54:00,-5.9,-15.9,30.44,WNW,284,12.0,14.0,61,0.00,,,0.00,Wunderground v.1.15,2014-01-27 22:54:00,
2014-01-27 17:00:00,-6.0,-16.0,30.44,West,266,11.0,11.0,61,0.00,,,0.00,Wunderground v.1.15,2014-01-27 23:00:00,
2014-01-27 17:06:00,-6.2,-16.2,30.44,West,267,12.0,15.0,61,0.00,,,0.00,Wunderground v.1.15,2014-01-27 23:06:00,
2014-01-27 17:12:00,-6.2,-16.2,30.44,West,265,12.0,13.0,61,0.00,,,0.00,Wunderground v.1.15,2014-01-27 23:12:00,
2014-01-27 17:18:00,-6.3,-16.3,30.44,West,261,12.0,13.0,61,0.00,,,0.00,Wunderground v.1.15,2014-01-27 23:18:00,
2014-01-27 17:24:00,-6.5,-16.1,30.45,West,268,11.0,12.0,62,0.00,,,0.00,Wunderground v.1.15,2014-01-27 23:24:00,
2014-01-27 17:30:00,-6.5,-16.1,30.44,West,267,10.0,10.0,62,0.00,,,0.00,Wunderground v.1.15,2014-01-27 23:30:00,
2014-01-27 17:36:00,-6.5,-16.1,30.45,West,273,9.0,10.0,62,0.00,,,0.00,Wunderground v.1.15,2014-01-27 23:36:00,
2014-01-27 17:42:00,-6.6,-16.2,30.45,WSW,252,9.0,10.0,62,0.00,,,0.00,Wunderground v.1.15,2014-01-27 23:42:00,
2014-01-27 17:48:00,-6.7,-16.3,30.45,WSW,254,9.0,12.0,62,0.00,,,0.00,Wunderground v.1.15,2014-01-27 23:48:00,
2014-01-27 17:54:00,-6.8,-16.4,30.45,WSW,240,9.0,10.0,62,0.00,,,0.00,Wunderground v.1.15,2014-01-27 23:54:00,
2014-01-27 18:00:00,-7.0,-16.3,30.45,West,267,9.0,9.0,63,0.00,,,0.00,Wunderground v.1.15,2014-01-28 00:00:00,
2014-01-27 18:06:00,-7.2,-16.5,30.45,West,269,9.0,10.0,63,0.00,,,0.00,Wunderground v.1.15,2014-01-28 00:06:00,
2014-01-27 18:12:00,-7.4,-16.7,30.45,West,277,9.0,11.0,63,0.00,,,0.00,Wunderground v.1.15,2014-01-28 00:12:00,
2014-01-27 18:18:00,-7.3,-16.6,30.45,WSW,258,11.0,14.0,63,0.00,,,0.00,Wunderground v.1.15,2014-01-28 00:18:00,
2014-01-27 18:24:00,-7.2,-16.5,30.46,West,267,12.0,15.0,63,0.00,,,0.00,Wunderground v.1.15,2014-01-28 00:24:00,
2014-01-27 18:30:00,-7.2,-16.5,30.46,West,269,11.0,14.0,63,0.00,,,0.00,Wunderground v.1.15,2014-01-28 00:30:00,
2014-01-27 18:36:00,-7.2,-16.5,30.47,West,265,10.0,14.0,63,0.00,,,0.00,Wunderground v.1.15,2014-01-28 00:36:00,
2014-01-27 18:42:00,-7.3,-16.6,30.47,West,263,10.0,11.0,63,0.00,,,0.00,Wunderground v.1.15,2014-01-28 00:42:00,
2014-01-27 18:48:00,-7.5,-16.8,30.47,West,278,9.0,13.0,63,0.00,,,0.00,Wunderground v.1.15,2014-01-28 00:48:00,
2014-01-27 18:54:00,-7.5,-16.8,30.47,West,264,9.0,15.0,63,0.00,,,0.00,Wunderground v.1.15,2014-01-28 00:54:00,
2014-01-27 19:00:00,-7.5,-16.8,30.47,West,273,10.0,12.0,63,0.00,,,0.00,Wunderground v.1.15,2014-01-28 01:00:00,
2014-01-27 19:06:00,-7.5,-16.8,30.47,West,278,10.0,12.0,63,0.00,,,0.00,Wunderground v.1.15,2014-01-28 01:06:00,
2014-01-27 19:12:00,-7.4,-16.7,30.48,West,270,10.0,10.0,63,0.00,,,0.00,Wunderground v.1.15,2014-01-28 01:12:00,
2014-01-27 19:18:00,-7.4,-16.7,30.48,West,271,10.0,13.0,63,0.00,,,0.00,Wunderground v.1.15,2014-01-28 01:18:00,
2014-01-27 19:24:00,-7.6,-16.9,30.48,West,267,10.0,10.0,63,0.00,,,0.00,Wunderground v.1.15,2014-01-28 01:24:00,
2014-01-27 19:30:00,-7.6,-16.9,30.48,West,277,9.0,9.0,63,0.00,,,0.00,Wunderground v.1.15,2014-01-28 01:30:00,
2014-01-27 19:36:00,-7.6,-16.9,30.48,West,281,9.0,14.0,63,0.00,,,0.00,Wunderground v.1.15,2014-01-28 01:36:00,
2014-01-27 19:42:00,-7.9,-17.2,30.48,West,274,9.0,10.0,63,0.00,,,0.00,Wunderground v.1.15,2014-01-28 01:42:00,
2014-01-27 19:48:00,-7.9,-16.8,30.48,West,260,8.0,10.0,64,0.00,,,0.00,Wunderground v.1.15,2014-01-28 01:48:00,
2014-01-27 19:54:00,-7.8,-16.8,30.49,WSW,255,8.0,9.0,64,0.00,,,0.00,Wunderground v.1.15,2014-01-28 01:54:00,
2014-01-27 20:00:00,-7.9,-16.8,30.49,West,271,7.0,7.0,64,0.00,,,0.00,Wunderground v.1.15,2014-01-28 02:00:00,
2014-01-27 20:06:00,-8.1,-16.7,30.49,West,276,8.0,8.0,65,0.00,,,0.00,Wunderground v.1.15,2014-01-28 02:06:00,
2014-01-27 20:12:00,-8.1,-16.7,30.49,West,272,9.0,10.0,65,0.00,,,0.00,Wunderground v.1.15,2014-01-28 02:12:00,
2014-01-27 20:18:00,-8.1,-16.7,30.49,West,281,9.0,10.0,65,0.00,,,0.00,Wunderground v.1.15,2014-01-28 02:18:00,
2014-01-27 20:24:00,-8.2,-16.8,30.49,West,274,8.0,9.0,65,0.00,,,0.00,Wunderground v.1.15,2014-01-28 02:24:00,
2014-01-27 20:30:00,-8.3,-16.6,30.49,West,278,8.0,8.0,66,0.00,,,0.00,Wunderground v.1.15,2014-01-28 02:30:00,
2014-01-27 20:36:00,-8.3,-16.6,30.49,West,278,8.0,9.0,66,0.00,,,0.00,Wunderground v.1.15,2014-01-28 02:36:00,
2014-01-27 20:42:00,-8.2,-16.5,30.49,West,265,8.0,9.0,66,0.00,,,0.00,Wunderground v.1.15,2014-01-28 02:42:00,
2014-01-27 20:48:00,-8.2,-16.5,30.50,West,263,8.0,9.0,66,0.00,,,0.00,Wunderground v.1.15,2014-01-28 02:48:00,
2014-01-27 20:54:00,-8.2,-16.8,30.50,West,277,8.0,8.0,65,0.00,,,0.00,Wunderground v.1.15,2014-01-28 02:54:00,
2014-01-27 21:00:00,-8.3,-16.9,30.50,West,279,9.0,9.0,65,0.00,,,0.00,Wunderground v.1.15,2014-01-28 03:00:00,
2014-01-27 21:06:00,-8.7,-17.0,30.50,WNW,286,8.0,10.0,66,0.00,,,0.00,Wunderground v.1.15,2014-01-28 03:06:00,
2014-01-27 21:12:00,-8.8,-17.1,30.49,West,263,8.0,8.0,66,0.00,,,0.00,Wunderground v.1.15,2014-01-28 03:12:00,
2014-01-27 21:18:00,-8.5,-16.5,30.49,WNW,294,8.0,10.0,67,0.00,,,0.00,Wunderground v.1.15,2014-01-28 03:18:00,
2014-01-27 21:24:00,-8.3,-16.6,30.50,WNW,288,8.0,8.0,66,0.00,,,0.00,Wunderground v.1.15,2014-01-28 03:24:00,
2014-01-27 21:30:00,-8.8,-17.1,30.50,WNW,288,8.0,8.0,66,0.00,,,0.00,Wunderground v.1.15,2014-01-28 03:30:00,
2014-01-27 21:36:00,-8.9,-17.2,30.50,West,273,8.0,8.0,66,0.00,,,0.00,Wunderground v.1.15,2014-01-28 03:36:00,
2014-01-27 21:42:00,-8.9,-16.9,30.50,West,281,7.0,8.0,67,0.00,,,0.00,Wunderground v.1.15,2014-01-28 03:42:00,
2014-01-27 21:48:00,-9.0,-17.0,30.50,WNW,290,7.0,8.0,67,0.00,,,0.00,Wunderground v.1.15,2014-01-28 03:48:00,
2014-01-27 21:54:00,-8.8,-16.8,30.50,West,277,7.0,9.0,67,0.00,,,0.00,Wunderground v.1.15,2014-01-28 03:54:00,
2014-01-27 22:00:00,-8.8,-16.8,30.50,West,279,7.0,7.0,67,0.00,,,0.00,Wunderground v.1.15,2014-01-28 04:00:00,
2014-01-27 22:06:00,-8.8,-16.8,30.50,WNW,289,7.0,9.0,67,0.00,,,0.00,Wunderground v.1.15,2014-01-28 04:06:00,
2014-01-27 22:12:00,-8.5,-16.5,30.50,WNW,288,8.0,8.0,67,0.00,,,0.00,Wunderground v.1.15,2014-01-28 04:12:00,
2014-01-27 22:18:00,-8.4,-16.4,30.50,WNW,288,9.0,12.0,67,0.00,,,0.00,Wunderground v.1.15,2014-01-28 04:18:00,
2014-01-27 22:24:00,-8.6,-16.6,30.50,WNW,289,9.0,10.0,67,0.00,,,0.00,Wunderground v.1.15,2014-01-28 04:24:00,
2014-01-27 22:30:00,-8.9,-16.9,30.50,WNW,288,8.0,8.0,67,0.00,,,0.00,Wunderground v.1.15,2014-01-28 04:30:00,
2014-01-27 22:36:00,-9.3,-17.3,30.50,West,279,8.0,9.0,67,0.00,,,0.00,Wunderground v.1.15,2014-01-28 04:36:00,
2014-01-27 22:42:00,-9.7,-17.7,30.51,West,276,7.0,9.0,67,0.00,,,0.00,Wunderground v.1.15,2014-01-28 04:42:00,
2014-01-27 22:48:00,-9.7,-17.4,30.51,West,281,8.0,9.0,68,0.00,,,0.00,Wunderground v.1.15,2014-01-28 04:48:00,
2014-01-27 22:54:00,-9.9,-17.6,30.50,WNW,286,7.0,8.0,68,0.00,,,0.00,Wunderground v.1.15,2014-01-28 04:54:00,
2014-01-27 23:00:00,-10.3,-18.0,30.50,WNW,283,6.0,7.0,68,0.00,,,0.00,Wunderground v.1.15,2014-01-28 05:00:00,
2014-01-27 23:02:00,-10.2,-17.9,30.50,WNW,287,7.0,7.0,68,0.00,,,0.00,Wunderground v.1.15,2014-01-28 05:02:00,
2014-01-27 23:04:00,-10.0,-17.7,30.50,WNW,287,7.0,7.0,68,0.00,,,0.00,Wunderground v.1.15,2014-01-28 05:04:00,
2014-01-27 23:06:00,-10.0,-17.7,30.50,WNW,294,7.0,7.0,68,0.00,,,0.00,Wunderground v.1.15,2014-01-28 05:06:00,
2014-01-27 23:10:00,-10.1,-17.8,30.50,West,280,6.0,8.0,68,0.00,,,0.00,Wunderground v.1.15,2014-01-28 05:10:00,
2014-01-27 23:14:00,-10.3,-18.0,30.50,West,275,7.0,10.0,68,0.00,,,0.00,Wunderground v.1.15,2014-01-28 05:14:00,
2014-01-27 23:20:00,-10.4,-18.1,30.50,West,273,8.0,9.0,68,0.00,,,0.00,Wunderground v.1.15,2014-01-28 05:20:00,
2014-01-27 23:26:00,-10.5,-17.9,30.50,West,275,8.0,11.0,69,0.00,,,0.00,Wunderground v.1.15,2014-01-28 05:26:00,
2014-01-27 23:32:00,-10.6,-18.0,30.51,West,271,8.0,9.0,69,0.00,,,0.00,Wunderground v.1.15,2014-01-28 05:32:00,
2014-01-27 23:38:00,-10.2,-17.6,30.51,West,277,8.0,10.0,69,0.00,,,0.00,Wunderground v.1.15,2014-01-28 05:38:00,
2014-01-27 23:44:00,-10.5,-18.2,30.51,West,275,7.0,8.0,68,0.00,,,0.00,Wunderground v.1.15,2014-01-28 05:44:00,
2014-01-27 23:46:00,-10.5,-17.9,30.51,West,272,7.0,8.0,69,0.00,,,0.00,Wunderground v.1.15,2014-01-28 05:46:00,
2014-01-27 23:52:00,-10.2,-17.6,30.51,West,270,7.0,11.0,69,0.00,,,0.00,Wunderground v.1.15,2014-01-28 05:52:00,
2014-01-27 23:58:00,-10.1,-17.5,30.51,West,268,7.0,11.0,69,0.00,,,0.00,Wunderground v.1.15,2014-01-28 05:58:00,